OneWeb SL0552

operational
NORAD ID: 56054 Int'l Des: 2023-043 Owner: ONEWEBN Country: UK Constellation: oneweb
LEOCIRCULARPOLARONEWEB_TYPE

关于 OneWeb SL0552

正在加载描述...

实时位置

正在加载3D地球...

即将过境

高度历史

Altitude vs Time

uPlot chart will show altitude changes over time

两行轨道根数

1 56054U 23043J 25352.23328384 .00000203 00000-0 46116-3 0 9998
2 56054 87.9223 280.0827 0002014 69.1510 290.9840 13.21827243134327
Epoch: Dec 18, 2025 • Age: 7 hours

当前状态

高度 1193.6 km
速度 7.26 km/s
星下点 -40.23°S, 0.94°E
发射日期 Mar 26, 2023
运行时间 2.7 years
类型 internet

技术详情

分类 Payload
质量 148.00 kg
干质量 140.00 kg
总质量 148.00 kg
长度 1.30 m
直径 1.00 m
跨度 5.00 m
形状 Trapezoid+2 pan
制造商 ONEWUS
平台类型 ARROW
阶段状态 In Orbit
所有者/国家 ONEWEBN/UK

大型星座

Loading constellations...